EHI
0 0 0 0 0 0 0 0 0 0 0 0 0 0 0 0 0 0 0 0 0 0 0 0 0 0 0 0 0 0 0 0 0 0 0 0 0 0 0 0 0 0 0 0
0 0 0 0 0 0 0 0 0 0 0 0 0 0 0 0 0 0 0 0 0 0 0 0 0 0 0 0 0 0 0 0 0 0 0 0 0 0 0 0 0 0 0 0
0 0 0 0 0 0 0 0 0 0 0 0 0 0 0 0 0 0 0 0 0 0 0 0 0 0 0 0 0 0 0 0 0 0 0 0 0 0 0 0 0 0 0 0
0 0 0 0 0 0 0 0 0 0 0 0 0 0 0 0 0 0 0 0 0 0 0 0 0 0 0 0 0 0 0 0 0 0 0 0 0 0 0 0 0 0 0 0
0 0 0 0 0 0 0 0 0 0 0 0 0 0 0 0 0 0 0 0 0 0 0 0 1 0 0 0 0 0 0 0 0 0 0 0 0 0 0 0 0 0 0 0
0 0 0 0 0 0 0 0 0 0 0 0 0 0 0 0 0 0 0 0 0 0 0 0 1 1 1 1 0 0 0 0 0 0 0 0 0 0 0 0 0 0 0 1
0 0 0 0 0 0 0 0 0 0 0 0 0 0 0 0 0 0 0 0 0 0 0 0 1 2 3 2 1 0 0 0 0 0 0 0 0 0 0 0 0 0 1 2
0 0 0 0 0 0 0 0 0 0 0 0 0 0 0 0 0 0 0 0 0 0 0 0 1 3 4 3 2 1 0 0 0 0 0 0 0 0 0 0 0 0 1 2
0 0 0 0 0 0 0 0 0 0 0 0 0 0 0 0 0 0 0 0 0 0 0 0 1 2 3 3 2 1 0 0 0 0 0 0 0 0 0 1 1 0 0 1
0 0 0 0 0 0 0 0 0 0 0 0 0 0 0 0 0 0 0 0 0 0 0 0 0 1 3 3 3 1 0 0 0 0 0 1 1 1 1 2 1 0 0 0
0 0 0 0 0 0 0 0 0 0 0 0 0 0 0 0 0 0 0 0 0 0 0 0 0 1 2 3 3 2 1 1 1 0 1 2 2 2 2 2 1 0 0 0
0 0 0 0 0 0 0 0 0 0 0 0 0 0 0 0 0 0 0 0 0 0 0 0 0 1 2 3 3 3 3 2 2 1 2 2 1 1 1 1 0 0 0 0
0 0 0 0 0 0 0 0 0 0 0 0 0 0 0 0 0 0 0 0 0 0 0 0 1 1 2 3 4 3 3 2 2 1 1 1 0 0 0 0 0 0 0 0
0 0 0 0 0 0 0 0 0 0 0 0 0 0 0 0 0 0 0 0 0 0 0 1 3 3 4 5 5 4 3 2 1 1 0 0 0 0 0 0 0 0 0 0
0 0 0 0 0 0 0 0 0 0 0 0 0 0 0 0 0 0 0 0 0 0 0 2 4 5 6 6 5 4 2 1 0 0 0 0 0 0 0 0 0 0 0 0
0 0 0 0 0 0 0 0 0 0 0 0 0 0 0 0 0 0 0 0 0 0 0 2 4 6 6 5 4 2 1 0 0 0 0 0 0 0 0 0 0 0 0 1
0 0 0 0 0 0 0 0 0 0 0 0 0 0 0 0 0 0 0 0 0 0 0 1 4 6 6 4 2 1 0 0 0 0 0 0 0 0 0 0 0 0 1 2
0 0 0 0 0 0 0 0 0 0 0 0 0 0 0 0 0 0 0 0 0 0 0 1 4 7 7 4 2 1 0 0 0 0 0 0 0 0 0 0 0 0 1 2
0 0 0 0 0 0 0 0 0 0 0 0 0 0 0 0 0 0 0 0 0 0 0 1 4 6 6 3 2 2 1 0 0 0 0 0 0 0 0 0 1 1 2 3
0 0 0 0 0 0 0 0 0 0 0 0 0 0 0 0 0 0 0 0 0 0 0 1 2 3 3 2 2 3 2 1 0 0 0 0 0 0 0 1 2 3 3 3
0 0 0 0 0 0 0 0 0 0 0 0 0 0 0 0 0 0 0 0 0 0 0 0 0 1 1 1 1 2 2 1 0 0 0 0 0 0 0 1 2 3 4 4
0 0 0 0 0 0 0 0 0 0 0 0 0 0 0 0 0 0 0 0 0 0 0 0 0 0 0 0 0 1 1 1 1 0 0 0 0 0 0 1 3 4 4 4
0 0 0 0 0 0 0 0 0 0 0 0 0 0 0 0 0 0 0 0 0 0 0 0 0 0 0 0 0 0 0 0 0 0 0 0 0 1 1 3 3 3 4 4
0 0 0 0 0 0 0 0 0 0 0 0 0 0 0 0 0 0 0 0 0 0 0 0 0 0 0 0 0 0 0 0 0 0 0 0 0 1 3 4 4 3 3 3
0 0 0 0 0 0 0 0 0 0 0 0 0 0 0 0 0 0 0 0 0 0 0 0 0 0 0 0 0 0 0 0 0 0 0 0 0 1 3 5 4 3 2 2
0 0 0 0 0 0 0 0 0 0 0 0 0 0 0 0 0 0 0 0 0 0 0 0 0 0 0 0 0 0 0 0 0 0 0 0 0 1 3 4 2 1 1 1
Wind_Speed
3 4 4 2 2 2 2 2 2 0 2 3 4 4 4 5 7 7 8 8 8 7 6 6 6 5 5 5 5 5 5 5 4 3 2 2 2 1 2 1 2 1 2 2
5 4 2 1 2 4 4 4 3 1 2 3 3 4 4 5 7 8 8 9 9 8 8 7 7 6 6 5 6 5 5 5 4 2 2 1 1 1 1 1 1 1 1 1
5 0 1 4 5 5 5 5 3 2 1 3 4 5 4 4 6 7 7 8 8 8 9 8 8 7 7 6 6 5 5 5 5 4 2 2 2 2 2 2 1 1 1 1
4 2 3 5 5 5 4 3 4 4 5 3 4 4 3 4 5 6 8 9 9 9 9 8 8 8 7 7 6 6 6 6 6 6 5 4 3 2 2 2 2 2 2 2
3 2 4 5 4 5 2 1 3 5 5 5 5 6 1 3 4 5 6 8 9 9 9 9 8 8 7 7 6 6 6 6 6 6 6 5 3 2 2 2 3 3 2 2
2 2 2 3 2 3 4 5 4 5 6 6 3 5 2 1 2 2 3 6 8 9 9 8 8 7 6 6 5 5 6 6 6 6 6 6 5 4 4 4 3 3 2 2
4 4 3 3 4 5 7 6 4 5 5 3 1 4 1 3 2 3 2 3 6 8 8 8 8 8 7 6 6 6 6 6 6 7 6 6 6 5 5 4 4 4 3 3
4 4 3 3 5 5 6 7 5 3 2 1 3 4 1 3 2 2 1 1 4 6 7 8 8 7 7 6 6 6 7 7 6 6 6 6 5 4 4 4 4 4 3 2
3 2 3 1 2 5 5 6 5 6 4 5 3 2 2 1 1 2 2 2 4 6 6 7 7 7 7 7 6 6 6 6 6 6 6 5 5 5 4 5 4 3 3 2
4 3 2 2 4 2 4 3 4 6 5 5 4 4 1 1 1 1 2 2 3 5 6 5 5 6 6 6 6 6 6 6 5 5 4 3 4 4 4 4 4 4 3 3
5 5 3 4 4 4 4 5 6 5 5 5 3 1 2 1 1 1 1 2 3 3 4 5 5 5 5 5 5 5 5 5 5 5 5 5 4 4 4 4 4 4 4 4
3 5 4 3 1 3 4 5 6 6 6 6 6 1 3 1 1 0 1 2 2 2 3 3 4 4 4 5 5 5 4 4 4 3 4 4 4 3 3 3 3 4 4 4
2 5 5 5 6 4 4 4 5 6 6 6 7 2 4 1 0 0 1 2 2 2 3 3 3 4 4 4 4 4 4 4 3 3 3 3 4 3 3 3 3 3 4 4
4 5 6 6 3 1 4 5 6 8 7 7 8 7 3 3 2 1 1 2 2 2 3 3 3 3 3 4 4 4 4 4 3 3 3 3 3 3 3 3 3 3 4 4
4 5 6 6 4 5 6 8 8 10 10 10 8 8 7 5 5 3 2 3 3 2 3 3 3 3 3 4 4 4 4 4 4 4 4 4 3 3 3 3 3 3 3 4
3 5 5 6 5 7 7 8 9 11 11 11 11 10 6 5 5 4 4 3 4 3 3 3 3 3 4 4 4 5 5 5 5 5 4 3 3 3 3 3 3 3 3 4
3 5 6 6 4 7 9 8 9 8 8 8 9 7 4 5 5 5 5 4 5 4 4 4 4 4 4 4 4 5 5 5 5 5 5 4 4 4 3 3 3 3 3 3
6 6 4 6 6 9 1 2 4 7 7 7 7 6 5 5 5 4 4 4 4 4 4 4 4 4 3 4 4 5 5 5 6 6 5 5 4 4 4 4 4 4 4 3
6 6 5 5 7 8 4 2 3 5 6 5 6 5 4 4 5 4 2 3 4 4 3 3 3 3 3 3 4 5 5 6 6 6 6 5 5 5 5 4 4 4 4 4
5 7 7 6 7 7 2 1 3 6 6 1 3 4 4 4 6 2 2 3 4 4 3 3 3 3 3 3 4 5 5 6 7 6 6 6 6 6 6 5 5 4 4 4
5 6 8 10 9 6 2 1 2 6 3 3 4 5 5 5 5 4 4 4 3 3 3 3 3 3 3 3 4 5 5 6 6 5 6 6 6 6 6 5 5 4 4 4
5 5 7 7 9 6 1 2 4 5 5 5 5 4 5 4 4 3 3 3 3 3 3 3 3 3 3 3 4 5 5 5 4 4 5 5 6 5 5 5 5 5 4 4
6 5 4 5 4 2 2 3 5 6 6 6 5 4 3 4 4 4 4 4 4 4 4 3 3 3 3 3 4 5 4 4 4 5 5 5 5 5 5 5 5 5 5 4
4 4 6 7 6 5 5 6 6 6 6 6 5 4 4 4 5 5 5 5 4 4 4 4 3 3 3 3 4 4 4 4 4 5 5 5 5 5 5 5 5 5 5 5
5 5 7 9 8 6 6 6 6 6 5 5 5 5 4 4 5 6 6 5 5 5 4 4 4 4 4 4 4 4 4 4 5 5 5 5 4 4 5 5 4 5 5 5
7 9 9 8 6 7 6 5 5 5 6 5 5 5 5 5 5 5 5 5 5 5 5 4 5 5 5 5 5 5 5 5 6 5 5 4 4 4 4 4 4 4 5 4
Wind_Direction
180 209 208 207 241 272 242 236 232 229 167 215 226 233 210 194 206 209 203 200 196 194 186 182 187 184 183 182 177 178 176 169 165 161 165 165 156 151 135 123 111 122 133 136
194 215 228 225 207 213 216 215 210 165 149 239 248 258 240 211 215 218 214 206 201 196 184 182 187 184 185 188 187 182 185 177 172 165 162 168 154 160 120 135 147 149 147 161
219 93 161 197 194 209 218 240 236 218 189 224 259 250 214 196 207 213 219 212 205 201 196 187 188 190 189 193 189 192 191 181 176 171 162 160 155 169 164 167 158 152 160 178
224 209 198 207 214 234 229 249 243 229 246 247 253 278 197 187 202 211 214 210 206 203 203 192 188 191 195 196 193 199 195 190 179 181 187 197 198 193 178 180 160 171 177 185
192 194 214 225 233 238 252 192 225 236 253 261 237 260 205 176 222 223 217 209 205 203 202 196 193 193 196 194 196 202 197 192 186 189 192 208 212 205 187 188 182 188 170 179
210 201 248 252 238 223 178 178 187 219 243 251 241 250 250 150 276 262 216 206 202 198 198 197 193 191 194 190 193 200 199 194 194 197 200 208 210 208 202 203 198 193 177 183
200 198 195 225 201 182 210 225 224 214 213 227 131 248 276 36 349 309 278 202 190 188 189 190 188 186 189 188 190 193 197 202 203 208 213 217 214 216 214 213 207 205 193 192
218 191 181 215 237 221 217 239 254 265 249 205 194 238 88 43 5 338 313 170 173 180 184 186 187 184 184 185 191 197 200 205 208 213 219 222 215 219 221 223 221 217 207 203
249 181 128 198 250 242 216 227 271 280 273 268 225 195 171 106 69 66 82 135 163 176 182 186 185 185 187 188 190 197 201 203 205 208 216 222 222 225 223 225 224 221 216 204
277 248 174 179 195 191 271 234 222 242 253 247 233 231 230 121 33 64 82 128 147 167 178 181 186 186 190 192 192 194 202 205 204 203 210 212 219 224 228 228 223 221 217 208
261 252 196 194 223 221 195 210 232 242 260 272 261 141 52 356 351 4 92 103 133 155 170 174 177 180 184 187 187 192 201 206 204 203 203 205 208 214 219 228 229 223 220 217
245 264 241 222 153 319 265 247 242 249 244 254 271 272 91 51 11 24 102 112 125 148 165 166 169 170 175 180 182 188 196 202 203 205 202 204 205 205 216 225 233 229 224 223
239 249 240 205 190 189 219 233 252 265 265 251 252 225 118 134 62 115 155 135 137 147 151 157 165 171 177 179 184 187 191 196 195 193 196 199 201 205 213 223 229 231 231 226
272 256 261 267 310 263 234 235 240 245 251 253 251 261 254 273 286 277 232 197 173 172 169 166 173 179 182 187 189 191 190 192 192 194 198 204 206 212 221 224 226 230 229 232
260 260 259 270 279 266 265 256 239 241 254 264 269 266 276 286 285 276 252 222 211 208 205 195 191 187 185 193 197 195 195 195 195 198 206 211 215 211 222 229 231 232 232 235
260 262 261 252 245 251 260 260 249 248 253 256 262 268 279 280 279 276 256 240 235 233 230 220 207 198 197 199 202 202 203 202 203 206 209 211 220 212 218 229 234 231 230 231
236 252 263 259 252 256 253 254 245 242 244 252 260 268 271 266 266 273 274 258 256 254 247 233 225 218 213 212 211 211 209 205 207 210 209 209 214 211 218 226 224 221 221 224
247 244 255 269 255 250 293 14 267 251 252 256 266 279 281 284 287 285 282 280 274 265 253 244 240 234 228 220 218 217 209 207 210 214 214 211 216 212 214 223 223 223 221 212
244 241 244 250 254 260 253 251 262 259 261 263 267 275 285 291 272 251 275 312 306 294 283 267 257 247 237 225 219 217 212 211 215 219 223 218 217 216 216 218 223 225 223 219
209 232 244 242 254 258 300 28 315 265 254 258 273 276 283 272 268 282 351 317 308 300 290 282 262 246 239 231 219 219 218 217 222 224 226 221 218 218 219 221 222 224 224 224
196 211 231 243 250 260 332 326 244 245 321 1 300 284 273 272 303 328 316 309 306 303 301 282 260 249 246 238 225 225 228 231 233 233 230 225 220 220 223 223 219 219 221 223
231 229 229 236 241 249 75 208 244 312 338 320 311 302 289 296 310 315 313 310 310 309 306 281 261 257 255 240 230 233 241 244 236 230 228 228 226 224 219 215 215 219 218 220
236 251 259 247 268 344 283 276 305 310 302 307 310 309 295 285 289 297 300 299 303 307 309 293 272 270 268 254 241 243 245 239 231 224 223 225 226 222 218 215 211 212 215 221
226 241 248 255 257 273 273 279 286 290 293 298 299 297 284 284 291 292 291 291 294 299 299 291 273 265 264 261 251 251 250 238 229 229 230 227 223 221 218 216 215 214 213 218
253 227 244 253 263 270 264 271 282 288 290 294 302 297 290 290 295 298 294 294 295 294 290 280 267 267 266 260 252 249 248 246 241 237 233 229 223 223 226 223 223 226 226 225
234 234 244 261 272 273 279 283 282 281 285 291 293 296 297 292 293 295 294 296 295 292 283 275 270 271 271 265 258 254 247 243 240 238 235 232 224 221 224 224 225 222 234 229